Hourly Data Report for May 07, 2020

STE-ANNE-DE-BELLEVUE 1
QUEBEC
Current Station Operator: ECCC - MSC

45°25'38.000" N
73°55'45.000" W
39.00 m
702FHL8
71377
WVQ

Download Data

Hourly Data (May 2020)
Hourly Data Report for May 7, 2020
TIME
LST
Temp Definition
°C
Dew Point Definition
°C
Rel Hum Definition
%
Precip. Amount Definition
mm

Wind Dir Definition
10's deg

Wind Spd Definition
km/h
Visibility Definition
km
Stn Press Definition
kPa
Hmdx Definition


Wind Chill Definition


Weather Definition


00:00 6.7 -7.4 36 0.0 1 7   100.42     LegendNANA
01:00 4.9 -6.8 43 0.0 1 3   100.38     LegendNANA
02:00 4.6 -6.9 43 0.0 2 6   100.34     LegendNANA
03:00 1.1 -6.0 59 0.0 32 3   100.32     LegendNANA
04:00 0.8 -5.0 65 0.0 31 3   100.29     LegendNANA
05:00 0.4 -5.2 66 0.0 8 4   100.25     LegendNANA
06:00 5.2 -4.3 50 0.0 30 2   100.30     LegendNANA
07:00 6.7 -5.0 43 0.0 31 3   100.30     LegendNANA
08:00 9.1 -5.3 36 0.0 19 6   100.24     LegendNANA
09:00 10.6 -5.8 31 0.0 14 9   100.18     LegendNANA
10:00 12.3 -5.5 28 0.0 16 9   100.11     LegendNANA
11:00 13.4 -6.1 25 0.0 13 12   100.01     LegendNANA
12:00 15.2 -6.0 23 0.0 20 11   99.86     LegendNANA
13:00 14.7 -5.1 25 0.0 23 22   99.81     LegendNANA
14:00 14.5 -3.8 28 0.0 25 14   99.71     LegendNANA
15:00 15.6 -5.3 23 0.0 24 22   99.67     LegendNANA
16:00 13.7 -5.0 27 0.0 29 22   99.70     LegendNANA
17:00 13.7 -4.9 27 0.0 28 25   99.73     LegendNANA
18:00 10.5 -1.3 44 0.0 31 21   99.87     LegendNANA
19:00 8.6 -1.4 49 0.0 29 17   99.97     LegendNANA
20:00 5.6 0.2 68 0.0 31 19   100.12     LegendNANA
21:00 5.0 0.2 71 0.0 28 13   100.15     LegendNANA
22:00 4.9 -2.0 61 0.0 30 11   100.16     LegendNANA
23:00 4.2 -3.9 56 0.0 32 17   100.21     LegendNANA

Notes on Data Quality.

Legend

  • E = Estimated
  • M = Missing
  • NA = Not Available*
  • [empty] = Indicates an unobserved value
Date modified: